Regional Weather Roundup
Issued by NWS Mobile, AL

Home | Current Version | Previous Version | Text Only | Print | Product List | Glossary On
Versions: 1 2 3 4 5 6 7 8 9 10 11 12 13 14 15 16 17 18 19 20 21 22 23 24 25 26 27 28 29 30 31 32 33 34 35 36 37 38 39 40 41 42 43 44 45 46 47 48 49 50
000
ASUS44 KMOB 310314
RWRMOB
REGIONAL WEATHER ROUNDUP
NATIONAL WEATHER SERVICE MOBILE AL
1000 PM CDT SUN AUG 30 2015

ALZ061>064-310400-
COASTAL ALABAMA


CITY           SKY/WX    TMP DP  RH WIND       PRES   REMARKS
MOBILE REG APT PTCLDY    72  68  87 CALM      30.03R
BROOKLEY FIELD PTCLDY    74  69  85 CALM      30.03R
GULF SHORES    CLEAR     72  71  99 CALM      30.02R

$$

ALZ051>060-310400-
INTERIOR SOUTHWEST AND SOUTH CENTRAL ALABAMA


CITY           SKY/WX    TMP DP  RH WIND       PRES   REMARKS
ANDALUSIA/OPP  PTCLDY    78  70  76 CALM      30.04R
EVERGREEN      CLEAR     74  71  91 CALM      30.04S
FLORALA        PTCLDY    73  70  90 CALM      30.05R
GREENVILLE     FAIR      72  68  87 CALM      30.04S

$$

FLZ001>006-310400-
WESTERN FLORIDA PANHANDLE


CITY           SKY/WX    TMP DP  RH WIND       PRES   REMARKS
CRESTVIEW      CLEAR     74  72  93 CALM      30.04S
DESTIN         MOCLDY    83  72  69 NE3       30.02R
DUKE FIELD     NOT AVBL
MARY ESTHER    MOCLDY    78  73  82 CALM      30.01R
MILTON         MOCLDY    78  73  84 CALM      30.03R
PENSACOLA      MOCLDY    78  71  79 CALM      30.02R
NAS PENSACOLA  PTCLDY    74  71  91 CALM      30.02R
VALPARAISO     PTCLDY    82  71  68 CALM      30.01S

$$

...MARINE OBSERVATIONS...

STATION/POSITION TIME  SKY/WX   TEMP    WIND        PRES    VSBY
                                AIR SEA DIR/SP/G
                 (UTC)          (F)     (DEG/KT/KT) (MB)    (MI)
GRAND BAY        0145            80     310/  2     1017.0
E DAUPHIN ISLAND 0300            82     210/  2/  3 1016.4R
MIDDLE BAY LIGHT 0200                   270/  4     1015.2R
MEAHER PARK      0200            83     270/  4     1015.2R
12 S ORANGE BCH  0250            83 85   CALM  /  2 1016.1R
WVE H/P(F/S)=  1

64 S DAUPHIN ISL 0250            82 87   50/  2/  4 1017.0R
WVE H/P(F/S)=  1/ 5

115 SE PENSACOLA 0250            84 86   50/  6/  8 1016.5R
WVE H/P(F/S)=  1/ 4

MID GULF/42001   0300            84 85   60/  8/ 10 1015.9R
EAST GULF/42003  0250            85 87   40/ 14/ 16 1015.0R
WVE H/P(F/S)=  3/ 6


$$

...NEARBY LOCATIONS

CITY           SKY/WX    TMP DP  RH WIND       PRES   REMARKS
GULFPORT       CLEAR     76  69  79 CALM      30.01R
BILOXI         CLEAR     79  72  78 NW1       30.00R
PASCAGOULA     CLEAR     70  68  93 CALM      30.02R
HATTIESBURG    PTCLDY    75  67  76 CALM      30.03R
LAUREL         PTCLDY    77  63  61 E5        30.05R
MERIDIAN       PTCLDY    75  69  81 NE8       30.05R
MERIDIAN NAS   MOCLDY    74  68  81 E7        30.06R
MONTGOMERY     CLEAR     76  70  82 N3        30.05R
MAXWELL AFB    CLEAR     75  71  89 N3        30.04R
TROY           CLEAR     71  69  93 CALM      30.05R
FORT RUCKER    CLEAR     73  68  84 CALM      30.03R
DALEVILLE        N/A     77  68  72 N3        30.03R
DOTHAN         CLEAR     75  70  84 NE5       30.07R

$$

...OTHER SURROUNDING LOCATIONS...

CITY           SKY/WX    TMP DP  RH WIND       PRES   REMARKS
BIRMINGHAM     MOCLDY    71  68  90 NE3       30.09F
TUSCALOOSA     CLEAR     70  67  90 NE5       30.07S
COLUMBUS GA    PTCLDY    75  70  84 E6        30.06R
PANAMA CITY    NOT AVBL
TALLAHASSEE    PTCLDY    81  69  67 CALM      30.01R
BATON ROUGE    CLEAR     76  69  79 CALM      30.01R
NEW ORLEANS    PTCLDY    81  68  64 SW8       30.01R
SLIDELL        CLEAR     75  71  87 CALM      30.01R
JACKSON        MOCLDY    82  68  62 E8        30.01R
MCCOMB         CLEAR     75  65  70 CALM      30.02R

$$

...SURROUNDING MARINE OBSERVATIONS...

STATION/POSITION TIME  SKY/WX   TEMP    WIND        PRES    VSBY
                                AIR SEA DIR/SP/G
                 (UTC)          (F)     (DEG/KT/KT) (MB)    (MI)
SOUTHWEST PASS   0300                                 N/A
TYNDALL TOWER C  0300            84     310/  2/  3 1016.1R
S APLCHCLA/42036 0250            85 86   40/  6/  8 1015.8R
WVE H/P(F/S)=  1/ 5


$$



USA.gov is the U.S. government's official web portal to all federal, state and local government web resources and services.